Regional Weather Roundup
Issued by NWS

Home | Current Version | Previous Version | Text Only | Print | Product List | Glossary Off
Versions: 1 2 3 4 5 6 7 8 9 10 11 12 13 14 15 16 17 18 19 20 21 22 23 24 25 26 27 28 29 30 31 32 33 34 35 36 37 38 39 40 41 42 43 44 45 46 47 48 49 50

000
ASUS43 KMPX 010601
RWRMN
WEATHER ROUNDUP FOR MINNESOTA
NATIONAL WEATHER SERVICE TWIN CITIES/CHANHASSEN MN
100 AM CDT WED JUN 01 2016


NOTE: "FAIR" INDICATES FEW OR NO CLOUDS BELOW 12,000 FEET WITH NO
SIGNIFICANT WEATHER AND/OR OBSTRUCTIONS TO VISIBILITY. N/A MEANS
CURRENT SKY AND/OR WEATHER CONDITIONS ARE NOT AVAILABLE.

MNZ060>063-068>070-010700-
   Twin Cities Metro

CITY           SKY/WX    TMP DP  RH WIND       PRES   REMARKS
TWIN CITIES    PTCLDY    64  57  78 S7        29.84F
6HR MIN TEMP:  63; 6HR MAX TEMP:  73;

ST PAUL        CLEAR     61  59  93 SE7       29.84F
CRYSTAL        CLEAR     60  51  72 S6        29.82F
BLAINE         CLEAR     63  61  94 S7        29.83F
EDEN PRAIRIE   CLEAR     61  51  70 S7        29.83F
6HR MIN TEMP:  61; 6HR MAX TEMP:  75;

SOUTH ST PAUL  PTCLDY    62  60  93 S5        29.85S
LAKE ELMO      FAIR      61  59  94 S8        29.86S
$$
MNZ001>005-007-008-013>017-022>024-027-028-010700-
   Northwest Minnesota

CITY           SKY/WX    TMP DP  RH WIND       PRES   REMARKS
BEMIDJI        CLOUDY    57  53  86 SE13G18   29.67F
HALLOCK        RAIN      55  54  94 NE5       29.64F
ROSEAU         LGT RAIN  57  54  88 E10       29.67F
WARROAD        LGT RAIN  57  54  88 SE14      29.69F
THIEF RVR FALL CLOUDY    55  52  88 E8        29.64F
CROOKSTON      CLOUDY    55  55 100 SW10      29.62S
FOSSTON        LGT RAIN  54  52  94 SE8       29.66F
DETROIT LAKES  MOCLDY    59  50  72 SW8       29.68S
MOORHEAD       CLEAR     55  52  88 SW9       29.67R
PARK RAPIDS    CLOUDY    62  45  53 S21G29    29.69S
MAHNOMEN       CLOUDY    56  52  87 S6        29.66F
$$
MNZ006-009>011-018-025>026-010700-
   North Central Minnesota

CITY           SKY/WX    TMP DP  RH WIND       PRES   REMARKS
BAUDETTE       CLOUDY    56  53  90 E16       29.71F
FLAG ISLAND    CLOUDY    55  54  94 E8        29.72F
INTL FALLS     CLOUDY    54  53  97 SE9       29.77F FOG
6HR MIN TEMP:  53; 6HR MAX TEMP:  54;

WASKISH        CLOUDY    55  54  94 E12       29.70F
BIG FORK       CLOUDY    54  52  94 SE6       29.75F
LONGVILLE      CLOUDY    52  50  93 SE12      29.73F
GRAND RAPIDS   FOG       47  47 100 E9        29.78F VSB 3/4
CRANE LAKE     CLOUDY    50  50 100 CALM      29.82F
ORR            CLOUDY    52  48  87 SE5       29.77F FOG
COOK           CLOUDY    52  50  93 E3        29.80F FOG
WALKER         RAIN      57  51  80 SE7       29.70F
$$
MNZ012-019>021-037-010700-
   Northeast Minnesota

CITY           SKY/WX    TMP DP  RH WIND       PRES   REMARKS
DULUTH         FOG       42  41  96 E12       29.83F VSB 1/4
6HR MIN TEMP:  42; 6HR MAX TEMP:  46;

ELY            CLOUDY    50  48  93 SE3       29.82F
HIBBING        FOG       47  47 100 SE7       29.80F VSB 1/4
EVELETH        FOG       50  50 100 SE3       29.82F VSB 1/2
DULUTH HARBOR  FOG       43  41  93 NE12      29.87F VSB 1
TWO HARBORS    HAZE      48  45  87 E3        29.83F VSB 1
SILVER BAY     CLOUDY    46  45  93 NE5       29.84F FOG
GRAND MARAIS     N/A     49  45  86 NE9       29.87F
G MARAIS ARPRT DRIZZLE   46  43  87 NE3       29.88F
$$
MNZ029>031-032-039>041-046>048-054>057-064-010700-
   West Central Minnesota

CITY           SKY/WX    TMP DP  RH WIND       PRES   REMARKS
FERGUS FALLS   PTCLDY    55  48  76 W16       29.70R
WHEATON        CLEAR     59  52  77 SW20      29.77S
MORRIS         CLEAR     57  48  72 SW20G26   29.78R
ALEXANDRIA     CLOUDY    59  46  62 SW21G31   29.78S
ELBOW LAKE     FAIR      55  48  77 SW13G23   29.76R
WADENA         MOCLDY    57  46  67 S17G30    29.72R
GLENWOOD       PTCLDY    57  46  67 SW17G23   29.80S
APPLETON       CLEAR     59  46  63 W17G23    29.81S
BENSON         CLEAR     57  46  67 W15G21    29.81S
ORTONVILLE     CLEAR     57  46  67 SW13G20   29.80S
MADISON        PTCLDY    59  46  63 W12       29.83S
WILLMAR        FAIR      61  48  63 SW18      29.85R
$$
MNZ033>034-036-042>043-049>051-058-059-010700-
   Central Minnesota

CITY           SKY/WX    TMP DP  RH WIND       PRES   REMARKS
ST CLOUD       PTCLDY    63  50  62 S14       29.80S
6HR MIN TEMP:  60; 6HR MAX TEMP:  72;

SAUK CENTRE    FAIR      58  46  64 SW15G23   29.79S
PAYNESVILLE    CLEAR     61  46  58 SW13      29.82S
AITKIN         CLOUDY    52  46  82 SE3       29.76F
PINE RIVER     CLOUDY    55  52  88 SE7       29.76F
BRAINERD       CLOUDY    63  48  58 S10G22    29.75F
STAPLES        PTCLDY    59  45  58 S16G25    29.74S
LONG PRAIRIE   FAIR      57  45  62 S14G21    29.78S
LITTLE FALLS   CLEAR     61  45  55 SW10      29.78R
LITCHFIELD     CLEAR     63  52  67 SW6       29.83S
BUFFALO        MOCLDY    64  48  57 S7        29.83S
MAPLE LAKE     CLOUDY    64  53  66 S6        29.82F
HUTCHINSON     MOCLDY    64  53  68 SW8       29.85S
$$
MNZ037-044-045-052-053-010700-
   East Central Minnesota

CITY           SKY/WX    TMP DP  RH WIND       PRES   REMARKS
PRINCETON      PTCLDY    61  52  72 S9        29.80F
MORA           PTCLDY    50  50 100 CALM      29.82F
CAMBRIDGE      CLEAR     64  54  68 SE6       29.79F
RUSH CITY      MOCLDY    60  58  94 SE6       29.82F
MOOSE LAKE     FOG       43  43 100 CALM      29.81F VSB 3/4
HINCKLEY       FOG       46  46 100 CALM      29.82F VSB 1/2
CLOQUET        MIX PCPN  43  41  93 E7        29.82F VSB 1/4
MCGREGOR       CLOUDY    45  45 100 SE3       29.80F VSB 1/2
$$
MNZ071>073-080-081-089-090-097-098-010700-
   Southwest Minnesota

CITY           SKY/WX    TMP DP  RH WIND       PRES   REMARKS
MONTEVIDEO     CLEAR     59  46  63 W8G16     29.85S
GRANITE FALLS  CLEAR     61  48  63 SW16G23   29.87R
CANBY          CLEAR     61  48  63 SW15      29.86S
MARSHALL       CLEAR     59  46  62 W14       29.87R
REDWOOD FALLS  CLOUDY    63  46  54 W15       29.86R
OLIVIA         PTCLDY    61  46  59 W13       29.85R
PIPESTONE      CLEAR     57  48  72 W9        29.91S
WINDOM         PTCLDY    63  48  59 W13G18    29.91R
WORTHINGTON    CLOUDY    59  50  72 W10       29.94R
JACKSON        PTCLDY    63  46  55 SW10G18   29.92R
TRACY          CLEAR     60  51  70 W9        29.89S
SLAYTON        CLEAR     58  47  67 W10       29.92S
$$
MNZ065>067-074>077-082>085-091>093-010700-
   South Central Minnesota

CITY           SKY/WX    TMP DP  RH WIND       PRES   REMARKS
MANKATO        CLEAR     63  48  59 S10       29.87S
NEW ULM        PTCLDY    63  50  63 SW10      29.87R
ST JAMES       PTCLDY   N/A N/A N/A SW9       29.90R
FAIRMONT       PTCLDY    63  50  63 SW8       29.90S
GLENCOE        PTCLDY    64  54  69 SW8       29.84S
OWATONNA       PTCLDY    63  55  77 S8        29.89S
WASECA         PTCLDY    59  52  77 S8        29.89F
ALBERT LEA     PTCLDY    61  55  82 S3        29.90S
$$
MNZ078>079-086>088-094>096-010700-
   Southeast Minnesota

CITY           SKY/WX    TMP DP  RH WIND       PRES   REMARKS
ROCHESTER      CLEAR     60  59  96 S6        29.91F
6HR MIN TEMP:  60; 6HR MAX TEMP:  67;

RED WING       CLEAR     63  61  94 SE3       29.86S
STANTON        PTCLDY    62  57  85 S5        29.86S
DODGE CENTER   CLEAR     61  57  88 S8        29.90S
WINONA         CLOUDY    61  59  94 SE3       29.90F
AUSTIN         CLEAR     57  55  94 SW5       29.90F
PRESTON        CLOUDY    60  59  96 SW7       29.90F FOG
$$
ABBREVIATIONS USED IN REMARKS
   TC - TEMPERATURES IN CELSIUS
  WCI - WIND CHILL INDEX
   HX - HEAT INDEX
  VSB - VISIBILITY
$$




USA.gov is the U.S. government's official web portal to all federal, state and local government web resources and services.